map of ZVK home
ZVK - Airport
Location
City:  Savannakhét, Lao People's Democratic Republic (Laos)
ICAO:VLSK
IATA:ZVK

Details
Type:Airport (Aerodrome, Airfield)
Latitude:16°33'24"N (16.556594)
Longitude:104°45'34"E (104.759531)
Datum:WGS 1984
Elevation:509 ft (155 m)
Variation:1.05°W (WMM2015v2 magnetic declination)
-0.04° annual change
Runways:1
Longest:5358 × 125 ft (1633 × 38 m), paved

Time
Time Zone:UTC+7
Local Time:

Weather
METAR:VLSK 041200Z 04002KT 3000 HZ FEW020 30/12 Q1011 NOSIG
TAF:VLSK 041100Z 0412/0512 09004KT 8000 FEW020
TEMPO 0414/0420 3000 BR SCT040

Related Locations
Nearby:
Farthest:SPYU: 12355 mi / 19884 km
Yauca, ARE, PE

Find:

   beyond  
but within

Other Information
Maps:
NOTAMs:
Links:
Sources:

  
  • flag of Lao People's Democratic Republic (Laos)
  

Sectional Chart

Flight Planning
at skyvector.com

Satellite Image

Google Maps Satellite view

 

Copyright © 2004-2019 Karl L. Swartz. All rights reserved.
The Great Circle Mapper name and logo are trademarks of the Great Circle Mapper.
All other trademarks mentioned herein belong to their respective owners.
Please see credits for attibutions and further copyright information.

  Follow gcmap on Facebook Follow gcmap on Twitter GCmap on LinkedIn

hCard Microformat

Geo Microformat